Year,Month,Day,Hour,Minute,Value (Times are PST for temperature in C)
2018,06,18,00,00,19.20
2018,06,18,00,01,19.20
2018,06,18,00,02,19.20
2018,06,18,00,03,19.20
2018,06,18,00,04,19.20
2018,06,18,00,05,19.10
2018,06,18,00,06,19.10
2018,06,18,00,07,19.10
2018,06,18,00,08,19.10
2018,06,18,00,09,19.10
2018,06,18,00,10,19.10
2018,06,18,00,11,19.10
2018,06,18,00,12,19.20
2018,06,18,00,13,19.20
2018,06,18,00,14,19.20
2018,06,18,00,15,19.20
2018,06,18,00,16,19.20
2018,06,18,00,17,19.20
2018,06,18,00,18,19.20
2018,06,18,00,19,19.20
2018,06,18,00,20,19.20
2018,06,18,00,21,19.20
2018,06,18,00,22,19.20
2018,06,18,00,23,19.10
2018,06,18,00,24,19.10
2018,06,18,00,25,19.10
2018,06,18,00,26,19.10
2018,06,18,00,27,19.10
2018,06,18,00,28,19.10
2018,06,18,00,29,19.20
2018,06,18,00,30,19.20
2018,06,18,00,31,19.20
2018,06,18,00,32,19.20
2018,06,18,00,33,19.20
2018,06,18,00,34,19.20
2018,06,18,00,35,19.20
2018,06,18,00,36,19.20
2018,06,18,00,37,19.20
2018,06,18,00,38,19.20
2018,06,18,00,39,19.20
2018,06,18,00,40,19.20
2018,06,18,00,41,19.30
2018,06,18,00,42,19.30
2018,06,18,00,43,19.30
2018,06,18,00,44,19.30
2018,06,18,00,45,19.30
2018,06,18,00,46,19.30
2018,06,18,00,47,19.30
2018,06,18,00,48,19.30
2018,06,18,00,49,19.30
2018,06,18,00,50,19.30
2018,06,18,00,51,19.30
2018,06,18,00,52,19.30
2018,06,18,00,53,19.30
2018,06,18,00,54,19.30
2018,06,18,00,55,19.30
2018,06,18,00,56,19.30
2018,06,18,00,57,19.30
2018,06,18,00,58,19.30
2018,06,18,00,59,19.30
2018,06,18,01,00,19.30
2018,06,18,01,01,19.30
2018,06,18,01,02,19.30
2018,06,18,01,03,19.30
2018,06,18,01,04,19.30
2018,06,18,01,05,19.30
2018,06,18,01,06,19.30
2018,06,18,01,07,19.20
2018,06,18,01,08,19.10
2018,06,18,01,09,19.10
2018,06,18,01,10,19.00
2018,06,18,01,11,18.90
2018,06,18,01,12,18.80
2018,06,18,01,13,18.70
2018,06,18,01,14,18.50
2018,06,18,01,15,18.40
2018,06,18,01,16,18.30
2018,06,18,01,17,18.10
2018,06,18,01,18,18.00
2018,06,18,01,19,17.80
2018,06,18,01,20,17.70
2018,06,18,01,21,17.60
2018,06,18,01,22,17.40
2018,06,18,01,23,17.30
2018,06,18,01,24,17.20
2018,06,18,01,25,17.10
2018,06,18,01,26,17.00
2018,06,18,01,27,16.90
2018,06,18,01,28,16.80
2018,06,18,01,29,16.80
2018,06,18,01,30,16.70
2018,06,18,01,31,16.70
2018,06,18,01,32,16.70
2018,06,18,01,33,16.70
2018,06,18,01,34,16.70
2018,06,18,01,35,16.60
2018,06,18,01,36,16.60
2018,06,18,01,37,16.60
2018,06,18,01,38,16.60
2018,06,18,01,39,16.60
2018,06,18,01,40,16.60
2018,06,18,01,41,16.60
2018,06,18,01,42,16.60
2018,06,18,01,43,16.60
2018,06,18,01,44,16.60
2018,06,18,01,45,16.60
2018,06,18,01,46,16.70
2018,06,18,01,47,16.70
2018,06,18,01,48,16.70
2018,06,18,01,49,16.70
2018,06,18,01,50,16.70
2018,06,18,01,51,16.70
2018,06,18,01,52,16.70
2018,06,18,01,53,16.70
2018,06,18,01,54,16.70
2018,06,18,01,55,16.70
2018,06,18,01,56,16.70
2018,06,18,01,57,16.70
2018,06,18,01,58,16.70
2018,06,18,01,59,16.60
2018,06,18,02,00,16.60
2018,06,18,02,01,16.60
2018,06,18,02,02,16.60
2018,06,18,02,03,16.60
2018,06,18,02,04,16.60
2018,06,18,02,05,16.50
2018,06,18,02,06,16.50
2018,06,18,02,07,16.50
2018,06,18,02,08,16.40
2018,06,18,02,09,16.40
2018,06,18,02,10,16.40
2018,06,18,02,11,16.40
2018,06,18,02,12,16.40
2018,06,18,02,13,16.40
2018,06,18,02,14,16.40
2018,06,18,02,15,16.40
2018,06,18,02,16,16.40
2018,06,18,02,17,16.40
2018,06,18,02,18,16.40
2018,06,18,02,19,16.40
2018,06,18,02,20,16.40
2018,06,18,02,21,16.40
2018,06,18,02,22,16.30
2018,06,18,02,23,16.30
2018,06,18,02,24,16.30
2018,06,18,02,25,16.20
2018,06,18,02,26,16.20
2018,06,18,02,27,16.10
2018,06,18,02,28,16.10
2018,06,18,02,29,16.00
2018,06,18,02,30,15.90
2018,06,18,02,31,15.90
2018,06,18,02,32,15.80
2018,06,18,02,33,15.80
2018,06,18,02,34,15.80
2018,06,18,02,35,15.80
2018,06,18,02,36,15.70
2018,06,18,02,37,15.70
2018,06,18,02,38,15.70
2018,06,18,02,39,15.70
2018,06,18,02,40,15.70
2018,06,18,02,41,15.70
2018,06,18,02,42,15.70
2018,06,18,02,43,15.70
2018,06,18,02,44,15.70
2018,06,18,02,45,15.70
2018,06,18,02,46,15.70
2018,06,18,02,47,15.70
2018,06,18,02,48,15.70
2018,06,18,02,49,15.70
2018,06,18,02,50,15.70
2018,06,18,02,51,15.60
2018,06,18,02,52,15.60
2018,06,18,02,53,15.60
2018,06,18,02,54,15.60
2018,06,18,02,55,15.60
2018,06,18,02,56,15.60
2018,06,18,02,57,15.60
2018,06,18,02,58,15.60
2018,06,18,02,59,15.60
2018,06,18,03,00,15.70
2018,06,18,03,01,15.70
2018,06,18,03,02,15.70
2018,06,18,03,03,15.70
2018,06,18,03,04,15.70
2018,06,18,03,05,15.80
2018,06,18,03,06,15.80
2018,06,18,03,07,15.80
2018,06,18,03,08,15.90
2018,06,18,03,09,15.90
2018,06,18,03,10,16.00
2018,06,18,03,11,16.00
2018,06,18,03,12,16.10
2018,06,18,03,13,16.10
2018,06,18,03,14,16.10
2018,06,18,03,15,16.10
2018,06,18,03,16,16.10
2018,06,18,03,17,16.10
2018,06,18,03,18,16.10
2018,06,18,03,19,16.10
2018,06,18,03,20,16.10
2018,06,18,03,21,16.10
2018,06,18,03,22,16.10
2018,06,18,03,23,16.10
2018,06,18,03,24,16.20
2018,06,18,03,25,16.20
2018,06,18,03,26,16.20
2018,06,18,03,27,16.10
2018,06,18,03,28,16.10
2018,06,18,03,29,16.10
2018,06,18,03,30,16.20
2018,06,18,03,31,16.20
2018,06,18,03,32,16.20
2018,06,18,03,33,16.20
2018,06,18,03,34,16.20
2018,06,18,03,35,16.20
2018,06,18,03,36,16.20
2018,06,18,03,37,16.20
2018,06,18,03,38,16.20
2018,06,18,03,39,16.10
2018,06,18,03,40,16.10
2018,06,18,03,41,16.10
2018,06,18,03,42,16.10
2018,06,18,03,43,16.10
2018,06,18,03,44,16.10
2018,06,18,03,45,16.10
2018,06,18,03,46,16.10
2018,06,18,03,47,16.00
2018,06,18,03,48,16.00
2018,06,18,03,49,16.00
2018,06,18,03,50,16.00
2018,06,18,03,51,16.00
2018,06,18,03,52,15.90
2018,06,18,03,53,15.90
2018,06,18,03,54,15.90
2018,06,18,03,55,15.90
2018,06,18,03,56,15.90
2018,06,18,03,57,15.90
2018,06,18,03,58,15.80
2018,06,18,03,59,15.90
2018,06,18,04,00,15.90
2018,06,18,04,01,15.80
2018,06,18,04,02,15.80
2018,06,18,04,03,15.80
2018,06,18,04,04,15.80
2018,06,18,04,05,15.80
2018,06,18,04,06,15.80
2018,06,18,04,07,15.80
2018,06,18,04,08,15.80
2018,06,18,04,09,15.70
2018,06,18,04,10,15.70
2018,06,18,04,11,15.70
2018,06,18,04,12,15.70
2018,06,18,04,13,15.70
2018,06,18,04,14,15.70
2018,06,18,04,15,15.70
2018,06,18,04,16,15.70
2018,06,18,04,17,15.60
2018,06,18,04,18,15.60
2018,06,18,04,19,15.60
2018,06,18,04,20,15.60
2018,06,18,04,21,15.60
2018,06,18,04,22,15.50
2018,06,18,04,23,15.50
2018,06,18,04,24,15.50
2018,06,18,04,25,15.50
2018,06,18,04,26,15.40
2018,06,18,04,27,15.40
2018,06,18,04,28,15.40
2018,06,18,04,29,15.40
2018,06,18,04,30,15.40
2018,06,18,04,31,15.40
2018,06,18,04,32,15.40
2018,06,18,04,33,15.40
2018,06,18,04,34,15.40
2018,06,18,04,35,15.40
2018,06,18,04,36,15.40
2018,06,18,04,37,15.40
2018,06,18,04,38,15.40
2018,06,18,04,39,15.40
2018,06,18,04,40,15.30
2018,06,18,04,41,15.30
2018,06,18,04,42,15.30
2018,06,18,04,43,15.20
2018,06,18,04,44,15.20
2018,06,18,04,45,15.20
2018,06,18,04,46,15.30
2018,06,18,04,47,15.30
2018,06,18,04,48,15.30
2018,06,18,04,49,15.30
2018,06,18,04,50,15.30
2018,06,18,04,51,15.30
2018,06,18,04,52,15.30
2018,06,18,04,53,15.30
2018,06,18,04,54,15.20
2018,06,18,04,55,15.20
2018,06,18,04,56,15.20
2018,06,18,04,57,15.20
2018,06,18,04,58,15.20
2018,06,18,04,59,15.20
2018,06,18,05,00,15.20
2018,06,18,05,01,15.20
2018,06,18,05,02,15.20
2018,06,18,05,03,15.20
2018,06,18,05,04,15.20
2018,06,18,05,05,15.20
2018,06,18,05,06,15.20
2018,06,18,05,07,15.10
2018,06,18,05,08,15.10
2018,06,18,05,09,15.10
2018,06,18,05,10,15.10
2018,06,18,05,11,15.00
2018,06,18,05,12,15.00
2018,06,18,05,13,14.90
2018,06,18,05,14,14.90
2018,06,18,05,15,14.90
2018,06,18,05,16,14.80
2018,06,18,05,17,14.90
2018,06,18,05,18,14.90
2018,06,18,05,19,14.90
2018,06,18,05,20,14.90
2018,06,18,05,21,14.90
2018,06,18,05,22,14.90
2018,06,18,05,23,14.90
2018,06,18,05,24,14.90
2018,06,18,05,25,14.90
2018,06,18,05,26,14.90
2018,06,18,05,27,14.90
2018,06,18,05,28,14.90
2018,06,18,05,29,14.90
2018,06,18,05,30,14.90
2018,06,18,05,31,14.90
2018,06,18,05,32,14.90
2018,06,18,05,33,14.90
2018,06,18,05,34,14.90
2018,06,18,05,35,14.90
2018,06,18,05,36,15.00
2018,06,18,05,37,15.00
2018,06,18,05,38,15.00
2018,06,18,05,39,15.00
2018,06,18,05,40,15.00
2018,06,18,05,41,15.00
2018,06,18,05,42,15.10
2018,06,18,05,43,15.10
2018,06,18,05,44,15.10
2018,06,18,05,45,15.20
2018,06,18,05,46,15.20
2018,06,18,05,47,15.20
2018,06,18,05,48,15.20
2018,06,18,05,49,15.20
2018,06,18,05,50,15.20
2018,06,18,05,51,15.20
2018,06,18,05,52,15.20
2018,06,18,05,53,15.20
2018,06,18,05,54,15.20
2018,06,18,05,55,15.30
2018,06,18,05,56,15.30
2018,06,18,05,57,15.30
2018,06,18,05,58,15.30
2018,06,18,05,59,15.30
2018,06,18,06,00,15.30
2018,06,18,06,01,15.30
2018,06,18,06,02,15.30
2018,06,18,06,03,15.30
2018,06,18,06,04,15.30
2018,06,18,06,05,15.40
2018,06,18,06,06,15.40
2018,06,18,06,07,15.40
2018,06,18,06,08,15.40
2018,06,18,06,09,15.40
2018,06,18,06,10,15.40
2018,06,18,06,11,15.40
2018,06,18,06,12,15.40
2018,06,18,06,13,15.40
2018,06,18,06,14,15.40
2018,06,18,06,15,15.40
2018,06,18,06,16,15.50
2018,06,18,06,17,15.50
2018,06,18,06,18,15.50
2018,06,18,06,19,15.50
2018,06,18,06,20,15.50
2018,06,18,06,21,15.60
2018,06,18,06,22,15.60
2018,06,18,06,23,15.60
2018,06,18,06,24,15.60
2018,06,18,06,25,15.60
2018,06,18,06,26,15.60
2018,06,18,06,27,15.60
2018,06,18,06,28,15.70
2018,06,18,06,29,15.70
2018,06,18,06,30,15.70
2018,06,18,06,31,15.70
2018,06,18,06,32,15.70
2018,06,18,06,33,15.70
2018,06,18,06,34,15.70
2018,06,18,06,35,15.70
2018,06,18,06,36,15.70
2018,06,18,06,37,15.80
2018,06,18,06,38,15.80
2018,06,18,06,39,15.80
2018,06,18,06,40,15.90
2018,06,18,06,41,15.90
2018,06,18,06,42,15.90
2018,06,18,06,43,16.00
2018,06,18,06,44,16.00
2018,06,18,06,45,16.10
2018,06,18,06,46,16.10
2018,06,18,06,47,16.20
2018,06,18,06,48,16.20
2018,06,18,06,49,16.20
2018,06,18,06,50,16.30
2018,06,18,06,51,16.30
2018,06,18,06,52,16.30
2018,06,18,06,53,16.40
2018,06,18,06,54,16.50
2018,06,18,06,55,16.60
2018,06,18,06,56,16.60
2018,06,18,06,57,16.60
2018,06,18,06,58,16.70
2018,06,18,06,59,16.70
2018,06,18,07,00,16.70
2018,06,18,07,01,16.70
2018,06,18,07,02,16.80
2018,06,18,07,03,16.80
2018,06,18,07,04,16.80
2018,06,18,07,05,16.90
2018,06,18,07,06,16.90
2018,06,18,07,07,16.90
2018,06,18,07,08,17.00
2018,06,18,07,09,17.00
2018,06,18,07,10,17.10
2018,06,18,07,11,17.10
2018,06,18,07,12,17.20
2018,06,18,07,13,17.20
2018,06,18,07,14,17.20
2018,06,18,07,15,17.20
2018,06,18,07,16,17.20
2018,06,18,07,17,17.20
2018,06,18,07,18,17.20
2018,06,18,07,19,17.30
2018,06,18,07,20,17.30
2018,06,18,07,21,17.30
2018,06,18,07,22,17.40
2018,06,18,07,23,17.40
2018,06,18,07,24,17.50
2018,06,18,07,25,17.50
2018,06,18,07,26,17.60
2018,06,18,07,27,17.60
2018,06,18,07,28,17.70
2018,06,18,07,29,17.80
2018,06,18,07,30,17.80
2018,06,18,07,31,17.80
2018,06,18,07,32,17.90
2018,06,18,07,33,17.90
2018,06,18,07,34,18.00
2018,06,18,07,35,18.00
2018,06,18,07,36,18.00
2018,06,18,07,37,18.00
2018,06,18,07,38,18.10
2018,06,18,07,39,18.10
2018,06,18,07,40,18.10
2018,06,18,07,41,18.10
2018,06,18,07,42,18.20
2018,06,18,07,43,18.20
2018,06,18,07,44,18.20
2018,06,18,07,45,18.20
2018,06,18,07,46,18.20
2018,06,18,07,47,18.30
2018,06,18,07,48,18.30
2018,06,18,07,49,18.30
2018,06,18,07,50,18.40
2018,06,18,07,51,18.40
2018,06,18,07,52,18.50
2018,06,18,07,53,18.50
2018,06,18,07,54,18.60
2018,06,18,07,55,18.60
2018,06,18,07,56,18.70
2018,06,18,07,57,18.70
2018,06,18,07,58,18.70
2018,06,18,07,59,18.80
2018,06,18,08,00,18.80
2018,06,18,08,01,18.90
2018,06,18,08,02,18.90
2018,06,18,08,03,19.00
2018,06,18,08,04,19.10
2018,06,18,08,05,19.20
2018,06,18,08,06,19.30
2018,06,18,08,07,19.40
2018,06,18,08,08,19.60
2018,06,18,08,09,19.80
2018,06,18,08,10,20.00
2018,06,18,08,11,20.10
2018,06,18,08,12,20.20
2018,06,18,08,13,20.30
2018,06,18,08,14,20.50
2018,06,18,08,15,20.60
2018,06,18,08,16,20.70
2018,06,18,08,17,20.90
2018,06,18,08,18,21.10
2018,06,18,08,19,21.20
2018,06,18,08,20,21.30
2018,06,18,08,21,21.40
2018,06,18,08,22,21.50
2018,06,18,08,23,21.60
2018,06,18,08,24,21.70
2018,06,18,08,25,21.80
2018,06,18,08,26,21.80
2018,06,18,08,27,21.80
2018,06,18,08,28,21.90
2018,06,18,08,29,22.00
2018,06,18,08,30,22.00
2018,06,18,08,31,22.10
2018,06,18,08,32,22.20
2018,06,18,08,33,22.20
2018,06,18,08,34,22.20
2018,06,18,08,35,22.30
2018,06,18,08,36,22.30
2018,06,18,08,37,22.30
2018,06,18,08,38,22.40
2018,06,18,08,39,22.50
2018,06,18,08,40,22.50
2018,06,18,08,41,22.60
2018,06,18,08,42,22.60
2018,06,18,08,43,22.60
2018,06,18,08,44,22.70
2018,06,18,08,45,22.70
2018,06,18,08,46,22.70
2018,06,18,08,47,22.70
2018,06,18,08,48,22.70
2018,06,18,08,49,22.80
2018,06,18,08,50,22.80
2018,06,18,08,51,22.80
2018,06,18,08,52,22.80
2018,06,18,08,53,22.80
2018,06,18,08,54,22.70
2018,06,18,08,55,22.70
2018,06,18,08,56,22.70
2018,06,18,08,57,22.70
2018,06,18,08,58,22.70
2018,06,18,08,59,22.60
2018,06,18,09,00,22.60
2018,06,18,09,01,22.60
2018,06,18,09,02,22.60
2018,06,18,09,03,22.60
2018,06,18,09,04,22.70
2018,06,18,09,05,22.80
2018,06,18,09,06,22.90
2018,06,18,09,07,23.00
2018,06,18,09,08,23.10
2018,06,18,09,09,23.20
2018,06,18,09,10,23.20
2018,06,18,09,11,23.20
2018,06,18,09,12,23.20
2018,06,18,09,13,23.20
2018,06,18,09,14,23.20
2018,06,18,09,15,23.20
2018,06,18,09,16,23.30
2018,06,18,09,17,23.30
2018,06,18,09,18,23.30
2018,06,18,09,19,23.30
2018,06,18,09,20,23.30
2018,06,18,09,21,23.30
2018,06,18,09,22,23.30
2018,06,18,09,23,23.30
2018,06,18,09,24,23.30
2018,06,18,09,25,23.30
2018,06,18,09,26,23.30
2018,06,18,09,27,23.20
2018,06,18,09,28,23.20
2018,06,18,09,29,23.20
2018,06,18,09,30,23.30
2018,06,18,09,31,23.30
2018,06,18,09,32,23.40
2018,06,18,09,33,23.40
2018,06,18,09,34,23.50
2018,06,18,09,35,23.60
2018,06,18,09,36,23.60
2018,06,18,09,37,23.50
2018,06,18,09,38,23.50
2018,06,18,09,39,23.40
2018,06,18,09,40,23.40
2018,06,18,09,41,23.30
2018,06,18,09,42,23.30
2018,06,18,09,43,23.30
2018,06,18,09,44,23.30
2018,06,18,09,45,23.30
2018,06,18,09,46,23.20
2018,06,18,09,47,23.20
2018,06,18,09,48,23.20
2018,06,18,09,49,23.10
2018,06,18,09,50,23.10
2018,06,18,09,51,23.10
2018,06,18,09,52,23.10
2018,06,18,09,53,23.10
2018,06,18,09,54,23.10
2018,06,18,09,55,23.10
2018,06,18,09,56,23.10
2018,06,18,09,57,23.20
2018,06,18,09,58,23.10
2018,06,18,09,59,23.10
2018,06,18,10,00,23.10
2018,06,18,10,01,23.10
2018,06,18,10,02,23.10
2018,06,18,10,03,23.10
2018,06,18,10,04,23.10
2018,06,18,10,05,23.10
2018,06,18,10,06,23.10
2018,06,18,10,07,23.10
2018,06,18,10,08,23.10
2018,06,18,10,09,23.10
2018,06,18,10,10,23.10
2018,06,18,10,11,23.20
2018,06,18,10,12,23.20
2018,06,18,10,13,23.30
2018,06,18,10,14,23.30
2018,06,18,10,15,23.20
2018,06,18,10,16,23.20
2018,06,18,10,17,23.20
2018,06,18,10,18,23.10
2018,06,18,10,19,23.10
2018,06,18,10,20,23.10
2018,06,18,10,21,23.10
2018,06,18,10,22,23.10
2018,06,18,10,23,23.20
2018,06,18,10,24,23.20
2018,06,18,10,25,23.20
2018,06,18,10,26,23.30
2018,06,18,10,27,23.40
2018,06,18,10,28,23.50
2018,06,18,10,29,23.50
2018,06,18,10,30,23.40
2018,06,18,10,31,23.30
2018,06,18,10,32,23.20
2018,06,18,10,33,23.10
2018,06,18,10,34,23.00
2018,06,18,10,35,22.90
2018,06,18,10,36,22.90
2018,06,18,10,37,22.80
2018,06,18,10,38,22.80
2018,06,18,10,39,22.80
2018,06,18,10,40,22.80
2018,06,18,10,41,22.80
2018,06,18,10,42,22.70
2018,06,18,10,43,22.80
2018,06,18,10,44,22.80
2018,06,18,10,45,22.80
2018,06,18,10,46,22.80
2018,06,18,10,47,22.80
2018,06,18,10,48,22.90
2018,06,18,10,49,23.00
2018,06,18,10,50,23.00
2018,06,18,10,51,23.10
2018,06,18,10,52,23.10
2018,06,18,10,53,23.20
2018,06,18,10,54,23.20
2018,06,18,10,55,23.20
2018,06,18,10,56,23.20
2018,06,18,10,57,23.20
2018,06,18,10,58,23.20
2018,06,18,10,59,23.20
2018,06,18,11,00,23.20
2018,06,18,11,01,23.10
2018,06,18,11,02,23.10
2018,06,18,11,03,23.10
2018,06,18,11,04,23.10
2018,06,18,11,05,23.10
2018,06,18,11,06,23.20
2018,06,18,11,07,23.30
2018,06,18,11,08,23.30
2018,06,18,11,09,23.40
2018,06,18,11,10,23.40
2018,06,18,11,11,23.50
2018,06,18,11,12,23.60
2018,06,18,11,13,23.70
2018,06,18,11,14,23.60
2018,06,18,11,15,23.60
2018,06,18,11,16,23.60
2018,06,18,11,17,23.60
2018,06,18,11,18,23.70
2018,06,18,11,19,23.70
2018,06,18,11,20,23.70
2018,06,18,11,21,23.70
2018,06,18,11,22,23.70
2018,06,18,11,23,23.80
2018,06,18,11,24,23.80
2018,06,18,11,25,23.90
2018,06,18,11,26,23.90
2018,06,18,11,27,24.10
2018,06,18,11,28,24.20
2018,06,18,11,29,24.30
2018,06,18,11,30,24.40
2018,06,18,11,31,24.40
2018,06,18,11,32,24.40
2018,06,18,11,33,24.40
2018,06,18,11,34,24.40
2018,06,18,11,35,24.40
2018,06,18,11,36,24.40
2018,06,18,11,37,24.40
2018,06,18,11,38,24.30
2018,06,18,11,39,24.30
2018,06,18,11,40,24.40
2018,06,18,11,41,24.40
2018,06,18,11,42,24.40
2018,06,18,11,43,24.40
2018,06,18,11,44,24.50
2018,06,18,11,45,24.50
2018,06,18,11,46,24.60
2018,06,18,11,47,24.70
2018,06,18,11,48,24.70
2018,06,18,11,49,24.70
2018,06,18,11,50,24.60
2018,06,18,11,51,24.50
2018,06,18,11,52,24.40
2018,06,18,11,53,24.30
2018,06,18,11,54,24.30
2018,06,18,11,55,24.20
2018,06,18,11,56,24.10
2018,06,18,11,57,24.10
2018,06,18,11,58,24.10
2018,06,18,11,59,24.10
2018,06,18,12,00,24.10
2018,06,18,12,01,24.20
2018,06,18,12,02,24.20
2018,06,18,12,03,24.30
2018,06,18,12,04,24.30
2018,06,18,12,05,24.30
2018,06,18,12,06,24.30
2018,06,18,12,07,24.30
2018,06,18,12,08,24.30
2018,06,18,12,09,24.20
2018,06,18,12,10,24.20
2018,06,18,12,11,24.30
2018,06,18,12,12,24.30
2018,06,18,12,13,24.30
2018,06,18,12,14,24.20
2018,06,18,12,15,24.20
2018,06,18,12,16,24.20
2018,06,18,12,17,24.20
2018,06,18,12,18,24.20
2018,06,18,12,19,24.20
2018,06,18,12,20,24.30
2018,06,18,12,21,24.40
2018,06,18,12,22,24.40
2018,06,18,12,23,24.50
2018,06,18,12,24,24.60
2018,06,18,12,25,24.70
2018,06,18,12,26,24.70
2018,06,18,12,27,24.70
2018,06,18,12,28,24.70
2018,06,18,12,29,24.70
2018,06,18,12,30,24.70
2018,06,18,12,31,24.70
2018,06,18,12,32,24.70
2018,06,18,12,33,24.70
2018,06,18,12,34,24.70
2018,06,18,12,35,24.70
2018,06,18,12,36,24.70
2018,06,18,12,37,24.70
2018,06,18,12,38,24.80
2018,06,18,12,39,24.80
2018,06,18,12,40,24.90
2018,06,18,12,41,24.90
2018,06,18,12,42,25.00
2018,06,18,12,43,25.10
2018,06,18,12,44,25.10
2018,06,18,12,45,25.20
2018,06,18,12,46,25.30
2018,06,18,12,47,25.40
2018,06,18,12,48,25.50
2018,06,18,12,49,25.70
2018,06,18,12,50,25.80
2018,06,18,12,51,25.90
2018,06,18,12,52,26.00
2018,06,18,12,53,26.10
2018,06,18,12,54,26.20
2018,06,18,12,55,26.20
2018,06,18,12,56,26.30
2018,06,18,12,57,26.30
2018,06,18,12,58,26.30
2018,06,18,12,59,26.30
2018,06,18,13,00,26.30
2018,06,18,13,01,26.20
2018,06,18,13,02,26.30
2018,06,18,13,03,26.30
2018,06,18,13,04,26.40
2018,06,18,13,05,26.40
2018,06,18,13,06,26.50
2018,06,18,13,07,26.60
2018,06,18,13,08,26.70
2018,06,18,13,09,26.80
2018,06,18,13,10,26.90
2018,06,18,13,11,27.00
2018,06,18,13,12,27.10
2018,06,18,13,13,27.20
2018,06,18,13,14,27.10
2018,06,18,13,15,26.90
2018,06,18,13,16,26.70
2018,06,18,13,17,26.60
2018,06,18,13,18,26.50
2018,06,18,13,19,26.40
2018,06,18,13,20,26.40
2018,06,18,13,21,26.40
2018,06,18,13,22,26.30
2018,06,18,13,23,26.30
2018,06,18,13,24,26.20
2018,06,18,13,25,26.20
2018,06,18,13,26,26.10
2018,06,18,13,27,26.20
2018,06,18,13,28,26.10
2018,06,18,13,29,26.10
2018,06,18,13,30,26.00
2018,06,18,13,31,26.00
2018,06,18,13,32,26.10
2018,06,18,13,33,26.10
2018,06,18,13,34,26.10
2018,06,18,13,35,26.00
2018,06,18,13,36,25.80
2018,06,18,13,37,25.80
2018,06,18,13,38,25.70
2018,06,18,13,39,25.80
2018,06,18,13,40,25.80
2018,06,18,13,41,25.80
2018,06,18,13,42,25.80
2018,06,18,13,43,25.80
2018,06,18,13,44,25.90
2018,06,18,13,45,25.90
2018,06,18,13,46,25.90
2018,06,18,13,47,25.90
2018,06,18,13,48,25.90
2018,06,18,13,49,25.90
2018,06,18,13,50,25.90
2018,06,18,13,51,26.00
2018,06,18,13,52,26.10
2018,06,18,13,53,26.10
2018,06,18,13,54,26.20
2018,06,18,13,55,26.30
2018,06,18,13,56,26.40
2018,06,18,13,57,26.50
2018,06,18,13,58,26.60
2018,06,18,13,59,26.60
2018,06,18,14,00,26.60
2018,06,18,14,01,26.60
2018,06,18,14,02,26.60
2018,06,18,14,03,26.60
2018,06,18,14,04,26.70
2018,06,18,14,05,26.80
2018,06,18,14,06,26.90
2018,06,18,14,07,26.90
2018,06,18,14,08,26.90
2018,06,18,14,09,26.90
2018,06,18,14,10,26.90
2018,06,18,14,11,26.80
2018,06,18,14,12,26.70
2018,06,18,14,13,26.70
2018,06,18,14,14,26.70
2018,06,18,14,15,26.70
2018,06,18,14,16,26.70
2018,06,18,14,17,26.80
2018,06,18,14,18,26.90
2018,06,18,14,19,26.90
2018,06,18,14,20,27.00
2018,06,18,14,21,27.10
2018,06,18,14,22,27.20
2018,06,18,14,23,27.30
2018,06,18,14,24,27.30
2018,06,18,14,25,27.30
2018,06,18,14,26,27.30
2018,06,18,14,27,27.30
2018,06,18,14,28,27.30
2018,06,18,14,29,27.20
2018,06,18,14,30,27.10
2018,06,18,14,31,27.10
2018,06,18,14,32,27.10
2018,06,18,14,33,27.10
2018,06,18,14,34,27.20
2018,06,18,14,35,27.20
2018,06,18,14,36,27.20
2018,06,18,14,37,27.20
2018,06,18,14,38,27.20
2018,06,18,14,39,27.10
2018,06,18,14,40,27.10
2018,06,18,14,41,27.10
2018,06,18,14,42,27.00
2018,06,18,14,43,27.00
2018,06,18,14,44,26.90
2018,06,18,14,45,26.90
2018,06,18,14,46,26.90
2018,06,18,14,47,26.90
2018,06,18,14,48,26.90
2018,06,18,14,49,26.90
2018,06,18,14,50,26.90
2018,06,18,14,51,26.90
2018,06,18,14,52,26.80
2018,06,18,14,53,26.80
2018,06,18,14,54,26.70
2018,06,18,14,55,26.70
2018,06,18,14,56,26.70
2018,06,18,14,57,26.60
2018,06,18,14,58,26.60
2018,06,18,14,59,26.70
2018,06,18,15,00,26.70
2018,06,18,15,01,26.80
2018,06,18,15,02,26.80
2018,06,18,15,03,26.90
2018,06,18,15,04,26.90
2018,06,18,15,05,26.90
2018,06,18,15,06,26.90
2018,06,18,15,07,26.80
2018,06,18,15,08,26.80
2018,06,18,15,09,26.80
2018,06,18,15,10,26.80
2018,06,18,15,11,26.70
2018,06,18,15,12,26.70
2018,06,18,15,13,26.80
2018,06,18,15,14,26.70
2018,06,18,15,15,26.70
2018,06,18,15,16,26.70
2018,06,18,15,17,26.70
2018,06,18,15,18,26.60
2018,06,18,15,19,26.60
2018,06,18,15,20,26.60
2018,06,18,15,21,26.60
2018,06,18,15,22,26.60
2018,06,18,15,23,26.60
2018,06,18,15,24,26.60
2018,06,18,15,25,26.60
2018,06,18,15,26,26.60
2018,06,18,15,27,26.60
2018,06,18,15,28,26.60
2018,06,18,15,29,26.50
2018,06,18,15,30,26.50
2018,06,18,15,31,26.40
2018,06,18,15,32,26.40
2018,06,18,15,33,26.50
2018,06,18,15,34,26.60
2018,06,18,15,35,26.70
2018,06,18,15,36,26.90
2018,06,18,15,37,27.10
2018,06,18,15,38,27.20
2018,06,18,15,39,27.30
2018,06,18,15,40,27.40
2018,06,18,15,41,27.50
2018,06,18,15,42,27.60
2018,06,18,15,43,27.70
2018,06,18,15,44,27.70
2018,06,18,15,45,27.70
2018,06,18,15,46,27.70
2018,06,18,15,47,27.70
2018,06,18,15,48,27.70
2018,06,18,15,49,27.70
2018,06,18,15,50,27.70
2018,06,18,15,51,27.70
2018,06,18,15,52,27.70
2018,06,18,15,53,27.70
2018,06,18,15,54,27.70
2018,06,18,15,55,27.70
2018,06,18,15,56,27.80
2018,06,18,15,57,27.80
2018,06,18,15,58,27.80
2018,06,18,15,59,27.70
2018,06,18,16,00,27.60
2018,06,18,16,01,27.50
2018,06,18,16,02,27.50
2018,06,18,16,03,27.40
2018,06,18,16,04,27.40
2018,06,18,16,05,27.30
2018,06,18,16,06,27.20
2018,06,18,16,07,27.10
2018,06,18,16,08,27.00
2018,06,18,16,09,26.80
2018,06,18,16,10,26.60
2018,06,18,16,11,26.50
2018,06,18,16,12,26.30
2018,06,18,16,13,26.20
2018,06,18,16,14,26.00
2018,06,18,16,15,25.80
2018,06,18,16,16,25.60
2018,06,18,16,17,25.40
2018,06,18,16,18,25.20
2018,06,18,16,19,25.10
2018,06,18,16,20,25.10
2018,06,18,16,21,25.10
2018,06,18,16,22,25.10
2018,06,18,16,23,25.20
2018,06,18,16,24,25.30
2018,06,18,16,25,25.40
2018,06,18,16,26,25.50
2018,06,18,16,27,25.50
2018,06,18,16,28,25.60
2018,06,18,16,29,25.70
2018,06,18,16,30,25.70
2018,06,18,16,31,25.70
2018,06,18,16,32,25.80
2018,06,18,16,33,25.80
2018,06,18,16,34,25.80
2018,06,18,16,35,25.80
2018,06,18,16,36,25.70
2018,06,18,16,37,25.70
2018,06,18,16,38,25.60
2018,06,18,16,39,25.60
2018,06,18,16,40,25.50
2018,06,18,16,41,25.40
2018,06,18,16,42,25.40
2018,06,18,16,43,25.30
2018,06,18,16,44,25.20
2018,06,18,16,45,25.10
2018,06,18,16,46,25.10
2018,06,18,16,47,25.10
2018,06,18,16,48,25.10
2018,06,18,16,49,25.10
2018,06,18,16,50,25.10
2018,06,18,16,51,25.10
2018,06,18,16,52,25.10
2018,06,18,16,53,25.00
2018,06,18,16,54,24.90
2018,06,18,16,55,24.80
2018,06,18,16,56,24.70
2018,06,18,16,57,24.60
2018,06,18,16,58,24.60
2018,06,18,16,59,24.40
2018,06,18,17,00,24.30
2018,06,18,17,01,24.30
2018,06,18,17,02,24.20
2018,06,18,17,03,24.20
2018,06,18,17,04,24.20
2018,06,18,17,05,24.20
2018,06,18,17,06,24.20
2018,06,18,17,07,24.10
2018,06,18,17,08,24.00
2018,06,18,17,09,23.90
2018,06,18,17,10,23.80
2018,06,18,17,11,23.70
2018,06,18,17,12,23.50
2018,06,18,17,13,23.50
2018,06,18,17,14,23.50
2018,06,18,17,15,23.60
2018,06,18,17,16,23.60
2018,06,18,17,17,23.70
2018,06,18,17,18,23.70
2018,06,18,17,19,23.70